Flag for Poland Weather past 2 weeks in Bielsko-Biała, Poland

Now
57 °F

Passing clouds.


Feels Like: 56 °F
Forecast: 35 / 59 °F
Wind: 5 mph from West

Location: Katowice

Current Time: Apr 21, 2015 at 2:14:59 PM

Latest Report: Apr 21, 2015 at 1:00 PM


Visibility: 13 mi

Pressure: 30.11 "Hg

Humidity: 39%

Dew point: 32 °F

Location of Bielsko-BiałaLocation

Historic Weather in Bielsko-Biała — Graph

°F

Bielsko-Biała temperature yesterday

Maximum temperature yesterday: 59 °F (at 4:00 PM)
Minimum temperature yesterday: 38 °F (at 7:00 AM)
Average temperature yesterday: 48 °F

Past Weeks' High & Low Weather Summary

 TemperatureHumidityPressure
High68 °F (Apr 11, 3:00 PM)92% (Apr 7, 4:00 AM)30.53 "Hg (Apr 7, 4:00 AM)
Low30 °F (Apr 7, 3:00 AM)23% (Apr 9, 3:00 PM)29.84 "Hg (Apr 17, 6:00 PM)
Average48 °F57%30.19 "Hg
* Reported Apr 6 1:00 PM — Apr 21 1:00 PM, Bielsko-Biała, Weather by CustomWeather, © 2015

Note: Actual official high and low records may vary slightly from our data, if they occured in-between our weather recording intervals... More about our weather records

Advertising

Bielsko-Biała weather history for previous 24 hours

 ConditionsComfort  
Time TempWeatherWind HumidityBarometerVisibility
1:00 PM
Tue, Apr 21
57 °FPassing clouds.5 mph39%30.11 "Hg12 mi
12:00 PM55 °FScattered clouds.5 mph43%30.14 "Hg12 mi
11:00 AM51 °FScattered clouds.6 mph46%30.17 "Hg12 mi
10:00 AM49 °FPassing clouds.5 mph46%30.19 "Hg12 mi
9:00 AM45 °FPassing clouds.3 mph53%30.22 "Hg12 mi
8:00 AM42 °FPassing clouds.2 mph59%30.24 "Hg12 mi
7:00 AM37 °FPassing clouds.2 mph65%30.23 "Hg12 mi
6:00 AM36 °FScattered clouds.1 mph64%30.23 "Hg12 mi
5:00 AM36 °FPassing clouds.1 mph60%30.23 "Hg19 mi
4:00 AM38 °FPassing clouds.2 mph57%30.22 "Hg19 mi
3:00 AM38 °FPassing clouds.2 mph52%30.23 "Hg19 mi
2:00 AM39 °FPassing clouds.1 mph52%30.22 "Hg19 mi
1:00 AM40 °FPassing clouds.1 mph49%30.21 "Hg19 mi
12:00 AM42 °FClear.2 mph45%30.20 "Hg19 mi
11:00 PM
Mon, Apr 20
43 °FPassing clouds.3 mph41%30.18 "Hg12 mi
10:00 PM46 °FClear.5 mph35%30.16 "Hg9 mi
9:00 PM48 °FPassing clouds.2 mph34%30.13 "Hg9 mi
8:00 PM51 °FPassing clouds.3 mph30%30.09 "Hg6 mi
7:00 PM54 °FOvercast.3 mph30%30.05 "Hg6 mi
6:00 PM56 °FPartly sunny.5 mph30%30.03 "Hg12 mi
5:00 PM58 °FScattered clouds.5 mph29%30.01 "Hg12 mi
4:00 PM59 °FScattered clouds.5 mph30%30.01 "Hg12 mi
3:00 PM57 °FPartly sunny.5 mph36%30.01 "Hg12 mi
2:00 PM56 °FPartly sunny.5 mph36%30.02 "Hg12 mi
Weather by CustomWeather, © 2015

See weather overviewHow to use our weather pages